Flag for United Kingdom Weather past 2 weeks in Portsmouth, England, United Kingdom

Now
64 °F

Passing clouds.


Feels Like: 64 °F
Forecast: 52 / 64 °F
Wind: 7 mph from West

Location: Southampton / Weather Centre

Current Time: Sep 1, 2015 at 5:39:50 PM

Latest Report: Sep 1, 2015 at 5:20 PM


Visibility: N/A

Pressure: 30.07 "Hg

Humidity: 52%

Dew point: 46 °F

Location of PortsmouthLocation

Historic Weather in Portsmouth — Graph

°F

Portsmouth temperature yesterday

Maximum temperature yesterday: 61 °F (at 3:50 PM)
Minimum temperature yesterday: 57 °F (at 5:50 AM)
Average temperature yesterday: 58 °F

Past Weeks' High & Low Weather Summary

 TemperatureHumidityPressure
High77 °F (Aug 22, 2:50 PM)94% (Aug 18, 6:50 AM)30.15 "Hg (Aug 18, 6:50 AM)
Low41 °F (Aug 28, 6:20 AM)40% (Aug 17, 4:20 PM)29.42 "Hg (Aug 24, 10:20 AM)
Average61 °F79%29.90 "Hg
* Reported Aug 17 4:20 PM — Sep 1 4:20 PM, Portsmouth, Weather by CustomWeather, © 2015

Note: Actual official high and low records may vary slightly from our data, if they occured in-between our weather recording intervals... More about our weather records

Advertising

Portsmouth weather history for previous 24 hours

 ConditionsComfort  
Time TempWeatherWind HumidityBarometerVisibility
4:20 PM
Tue, Sep 1
64 °FPassing clouds.5 mph52%30.07 "HgN/A
3:50 PM64 °FPassing clouds.3 mph52%30.07 "HgN/A
3:20 PM64 °FScattered clouds.7 mph56%30.07 "HgN/A
2:50 PM63 °FScattered clouds.6 mph56%30.09 "HgN/A
2:20 PM64 °FScattered clouds.5 mph60%30.09 "HgN/A
1:50 PM61 °FScattered clouds.6 mph63%30.09 "HgN/A
1:20 PM63 °FScattered clouds.8 mph56%30.09 "HgN/A
12:50 PM61 °FScattered clouds.7 mph68%30.09 "HgN/A
12:20 PM59 °FScattered clouds.7 mph68%30.09 "HgN/A
11:50 AM59 °FScattered clouds.3 mph68%30.09 "HgN/A
11:20 AM61 °FScattered clouds.3 mph63%30.09 "HgN/A
10:50 AM59 °FPartly sunny.3 mph72%30.09 "HgN/A
10:20 AM55 °FPartly sunny.5 mph82%30.09 "HgN/A
9:50 AM55 °FPartly sunny.3 mph82%30.07 "HgN/A
9:20 AM55 °FPartly sunny.6 mph82%30.07 "HgN/A
8:50 AM54 °FPartly sunny.5 mph88%30.07 "HgN/A
8:20 AM54 °FPartly sunny.5 mph88%30.07 "HgN/A
7:50 AM54 °FPartly sunny.2 mph88%30.04 "Hg5 mi
7:20 AM54 °FPassing clouds.1 mph88%30.04 "Hg6 mi
6:50 AM52 °FPassing clouds.2 mph94%30.04 "Hg5 mi
6:20 AM52 °FPassing clouds.3 mph94%30.04 "Hg5 mi
5:50 AM52 °FPassing clouds.1 mph94%30.04 "Hg4 mi
10:50 PM
Mon, Aug 31
57 °FPassing clouds.3 mph82%30.01 "HgN/A
10:20 PM57 °FPassing clouds.3 mph82%29.98 "HgN/A
9:50 PM57 °FPartly cloudy.3 mph82%30.01 "HgN/A
9:20 PM57 °FPartly cloudy.3 mph82%30.01 "HgN/A
8:50 PM57 °FBroken clouds.5 mph82%30.01 "HgN/A
8:20 PM57 °FBroken clouds.7 mph82%29.98 "HgN/A
7:50 PM57 °FBroken clouds.5 mph82%29.98 "HgN/A
7:20 PM57 °FBroken clouds.8 mph82%29.95 "HgN/A
6:50 PM57 °FBroken clouds.6 mph88%29.95 "HgN/A
6:20 PM59 °FBroken clouds.9 mph82%29.98 "HgN/A
5:50 PM59 °FScattered showers. Broken clouds.8 mph82%29.95 "HgN/A
5:20 PM61 °FBroken clouds.9 mph77%29.95 "HgN/A
Weather by CustomWeather, © 2015

See weather overviewHow to use our weather pages